Spokane Fairchild, WA
on Sunday, January 13, 2013

Sunday
Previous Day Next Day
Daily Summary
 ActualAverage (KGEG)Record (KGEG)
Temperature
Mean Temperature °F 29°F  
Max Temperature 19°F 34°F 53°F (1945)
Min Temperature 6°F 25°F -13°F (1909)
Degree Days
Heating Degree Days 52 36  
Month to date heating degree days 478  
Since 1 July heating degree days 3312  
Cooling Degree Days 0 0  
Month to date cooling degree days 0  
Year to date cooling degree days 0  
Moisture
Dew Point 15°F   
Average Humidity 99    
Maximum Humidity 100    
Minimum Humidity 73    
Precipitation
Precipitation 0.00 in 0.06 in 0.44 in (1950)
Month to date precipitation 0.83  
Year to date precipitation 0.83  
Snow
Snow 0.00 in 0.40 in 8.00 in (1950)
Month to date snowfall 6.0  
Since 1 July snowfall 28.1  
Snow Depth 3.00 in   
Wind
Wind Speed 3 mph   
Max Wind Speed 6 mph   
Max Gust Speed mph   
Visibility 10 miles   
Events Snow   

Key: T is trace of precipitation, MM is missing value
Source: NWS Daily Summary
Time(PST)TemperatureDew PointHumidity Pressure Visibility Wind DirectionWind SpeedGust SpeedPrecipitationEvents Conditions
12:59 AM 6.8°F 6.8°F 100% 30.37 in 10.0 miles SW 4.6 mph - N/A   Overcast
1:39 AM 14.0°F 6.8°F 73% 30.27 in 10.0 miles SW 4.6 mph - N/A Snow Light Snow
1:59 AM 15.8°F 14.0°F 93% 30.39 in 10.0 miles SSE 4.6 mph - 0.00 in Snow Light Snow
2:29 AM 15.8°F 15.8°F 100% 30.51 in 7.0 miles South 4.6 mph - N/A Snow Light Snow
2:56 AM 15.4°F 15.4°F 100% 30.40 in 7.0 miles SSE 5.8 mph - 0.00 in Snow Light Snow
3:56 AM 15.8°F 15.8°F 100% 30.39 in 8.0 miles South 2.3 mph - 0.00 in   Overcast
4:34 AM 15.8°F 15.8°F 100% 30.51 in 10.0 miles ESE 2.3 mph - N/A Snow Light Snow
4:59 AM 15.1°F 15.1°F 100% 30.40 in 10.0 miles East 2.3 mph - 0.00 in Snow Light Snow
5:56 AM 13.8°F 13.8°F 100% 30.42 in 10.0 miles NNE 2.3 mph - 0.00 in Snow Light Snow
6:56 AM 14.0°F 14.0°F 100% 30.46 in 8.0 miles NNE 3.5 mph - 0.00 in   Overcast
7:58 AM 14.5°F 14.5°F 100% 30.48 in 10.0 miles NNW 3.5 mph - N/A   Overcast
8:58 AM 14.0°F 14.0°F 100% 30.49 in 10.0 miles North 3.5 mph - N/A   Overcast
9:12 AM 14.0°F 14.0°F 100% 30.34 in 10.0 miles NNW 2.3 mph - N/A   Overcast
9:27 AM 14.0°F 14.0°F 100% 30.34 in 10.0 miles North 1.2 mph - N/A   Overcast
9:42 AM 14.0°F 14.0°F 100% 30.34 in 10.0 miles ENE 2.3 mph - N/A   Scattered Clouds
9:58 AM 13.6°F 13.6°F 100% 30.49 in 9.0 miles ENE 2.3 mph - N/A   Partly Cloudy
10:58 AM 16.3°F 16.3°F 100% 30.49 in 10.0 miles WSW 2.3 mph - N/A   Clear
10:59 AM 15.8°F 15.8°F 100% 30.34 in 10.0 miles Calm Calm - N/A   Partly Cloudy
11:49 AM 15.8°F 15.8°F 100% 30.34 in 10.0 miles SSE 1.2 mph - N/A   Mostly Cloudy
11:58 AM 16.5°F 16.5°F 100% 30.49 in 10.0 miles Calm Calm - N/A   Mostly Cloudy
12:03 PM 17.6°F 17.6°F 100% 30.33 in 10.0 miles Calm Calm - N/A   Mostly Cloudy
12:28 PM 15.8°F 15.8°F 100% 30.33 in 10.0 miles SE 2.3 mph - N/A   Scattered Clouds
12:43 PM 15.8°F 15.8°F 100% 30.32 in 9.0 miles SE 3.5 mph - N/A   Mostly Cloudy
12:48 PM 15.8°F 15.8°F 100% 30.32 in 9.0 miles SE 2.3 mph - N/A   Scattered Clouds
12:53 PM 17.6°F 17.6°F 100% 30.32 in 10.0 miles SE 2.3 mph - N/A   Mostly Cloudy
12:58 PM 16.9°F 16.9°F 100% 30.48 in 10.0 miles ESE 2.3 mph - N/A   Mostly Cloudy
1:00 PM 17.6°F 17.6°F 100% 30.33 in 10.0 miles ESE 2.3 mph - N/A   Mostly Cloudy
1:10 PM 17.6°F 17.6°F 100% 30.33 in 10.0 miles SSE 1.2 mph - N/A   Mostly Cloudy
1:13 PM 17.6°F 17.6°F 100% 30.33 in 10.0 miles Calm Calm - N/A   Mostly Cloudy
1:18 PM 17.6°F 17.6°F 100% 30.33 in 10.0 miles SE 1.2 mph - N/A   Scattered Clouds
1:58 PM 19.0°F 19.0°F 100% 30.45 in 10.0 miles Calm Calm - N/A   Clear
2:58 PM 17.8°F 17.8°F 100% 30.45 in 10.0 miles Calm Calm - N/A   Clear
3:58 PM 15.4°F 15.4°F 100% 30.47 in 10.0 miles SE 2.3 mph - N/A   Mostly Cloudy
4:33 PM 15.8°F 15.8°F 100% 30.32 in 10.0 miles WSW 3.5 mph - N/A   Overcast
4:58 PM 13.8°F 13.8°F 100% 30.47 in 10.0 miles WSW 4.6 mph - N/A   Overcast
5:03 PM 14.0°F 14.0°F 100% 30.33 in 10.0 miles WSW 4.6 mph - N/A   Overcast
5:58 PM 13.1°F 13.1°F 100% 30.46 in 10.0 miles South 3.5 mph - N/A   Overcast
6:58 PM 14.5°F 14.5°F 100% 30.47 in 10.0 miles South 2.3 mph - N/A   Overcast
7:58 PM 13.3°F 13.3°F 100% 30.47 in 10.0 miles ESE 4.6 mph - N/A   Overcast
8:58 PM 14.0°F 14.0°F 100% 30.47 in 10.0 miles Calm Calm - N/A   Overcast
9:28 PM 14.0°F 14.0°F 100% 30.33 in 10.0 miles South 2.3 mph - N/A   Overcast
9:29 PM 14.0°F 14.0°F 100% 30.32 in 10.0 miles South 2.3 mph - N/A   Overcast
9:58 PM 15.1°F 15.1°F 100% 30.47 in 10.0 miles North - - N/A   Overcast
10:33 PM 15.8°F 15.8°F 100% 30.33 in 10.0 miles SSE 4.6 mph - N/A   Overcast
10:42 PM 15.8°F 15.8°F 100% 30.33 in 10.0 miles SSE 4.6 mph - N/A Snow Light Snow
10:58 PM 15.8°F 15.8°F 100% 30.47 in 10.0 miles SSE 4.6 mph - N/A Snow Light Snow
11:58 PM 15.8°F 15.8°F 100% 30.47 in 10.0 miles SSE 4.6 mph - N/A Snow Light Snow
Moon Phase
Jan. 13 Jan. 18 Jan. 26 Feb. 03 Feb. 10
Sunrise:07:35 AM (PST) Moon Rise:08:23 AM (PST)1/13
Sunset:04:24 PM (PST) Moon Set:07:22 PM (PST)1/13

Copyright © 2014 The Weather Underground, Inc.